CDT,Max TemperatureF,Mean TemperatureF,Min TemperatureF,Max Dew PointF,MeanDew PointF,Min DewpointF,Max Humidity, Mean Humidity, Min Humidity, Max Sea Level PressureIn, Mean Sea Level PressureIn, Min Sea Level PressureIn, Max VisibilityMiles, Mean VisibilityMiles, Min VisibilityMiles, Max Wind SpeedMPH, Mean Wind SpeedMPH, Max Gust SpeedMPH,PrecipitationIn, CloudCover, Events, WindDirDegrees
2013-4-1,50,42,33,34,22,15,81,53,30,30.32,30.23,30.02,10,10,10,21,13,28,0.00,5,,16
2013-4-2,52,40,28,23,20,17,75,47,28,30.36,30.30,30.25,10,10,10,12,4,16,0.00,0,,78
2013-4-3,48,38,28,28,24,23,79,56,36,30.37,30.31,30.26,10,10,10,12,3,,0.00,1,,74
2013-4-4,63,46,30,35,29,25,85,56,28,30.24,30.16,30.08,10,10,9,9,3,,0.00,1,,287
2013-4-5,71,52,34,42,37,31,93,57,28,30.18,30.03,29.81,10,10,8,21,6,29,0.00,0,,179
2013-4-6,78,66,50,47,43,39,71,48,25,29.81,29.72,29.67,10,10,10,25,18,34,0.00,0,,229
2013-4-7,75,59,43,58,48,38,88,69,32,29.85,29.75,29.65,10,10,10,22,7,30,0.01,4,Rain,169
2013-4-8,75,64,55,61,58,51,100,80,64,29.70,29.67,29.64,10,10,4,16,8,23,0.00,7,,149
2013-4-9,75,58,43,63,57,41,94,80,64,29.83,29.69,29.57,10,9,6,30,14,41,0.01,8,Rain-Thunderstorm,141
2013-4-10,43,38,34,41,37,33,100,94,89,29.96,29.86,29.75,10,7,2,21,13,39,0.63,8,Rain-Thunderstorm,322
2013-4-11,44,38,33,32,28,26,92,73,53,29.86,29.79,29.74,10,10,8,24,14,31,0.00,7,,282
2013-4-12,55,42,30,32,28,25,82,63,41,30.05,29.93,29.82,10,10,10,20,13,25,0.00,2,,304
2013-4-13,68,49,32,47,37,29,89,64,40,30.06,29.91,29.64,10,10,8,16,5,24,0.00,3,,139
2013-4-14,71,63,54,53,44,30,64,52,36,29.74,29.54,29.46,10,10,10,34,19,45,0.00,3,,210
2013-4-15,53,48,43,42,32,26,93,56,39,30.01,29.87,29.73,10,10,10,15,7,21,0.11,7,Rain,12
2013-4-16,46,44,41,36,31,28,70,60,48,30.14,30.09,30.01,10,10,10,16,10,22,0.00,8,Rain,51
2013-4-17,48,46,44,48,44,37,100,91,73,30.07,29.81,29.66,10,6,1,18,9,24,0.63,8,Rain-Thunderstorm,19
2013-4-18,39,37,35,39,32,25,100,81,62,29.99,29.79,29.63,10,8,1,26,20,36,0.00,8,Thunderstorm,310
2013-4-19,55,42,30,29,25,21,79,55,32,30.12,30.02,29.96,10,10,10,22,15,29,0.00,3,,308
2013-4-20,57,42,28,35,30,24,89,56,37,30.24,30.16,30.12,10,10,10,16,6,24,0.00,3,,108
2013-4-21,69,56,44,43,40,35,76,56,40,30.19,30.13,30.08,10,10,10,20,11,25,0.00,3,,153
2013-4-22,64,51,39,52,43,37,94,73,48,30.10,30.02,29.91,10,10,10,18,9,24,0.09,4,Rain,136
2013-4-23,37,36,32,37,31,28,96,87,68,30.23,30.13,30.06,10,6,0,25,16,33,0.38,8,Fog-Rain-Snow,351
2013-4-24,55,40,26,33,27,21,88,59,36,30.29,30.23,30.18,10,10,10,16,9,29,0.00,1,,272
2013-4-25,70,50,30,39,35,28,89,55,27,30.31,30.23,30.12,10,10,10,16,7,23,0.00,0,,184
2013-4-26,59,52,48,50,47,38,97,87,63,30.21,30.16,30.12,10,10,7,22,8,32,0.35,8,Rain-Thunderstorm,134
2013-4-27,57,50,44,49,47,43,100,88,74,30.19,30.10,30.02,10,9,1,9,5,,0.13,6,Rain,61
2013-4-28,77,58,39,56,46,38,100,86,46,30.02,29.93,29.76,10,4,0,18,6,23,0.00,0,Fog,188
2013-4-29,87,69,51,61,57,50,96,64,39,29.79,29.68,29.58,10,10,10,21,12,28,0.00,0,,180
2013-4-30,84,74,64,59,55,51,70,52,40,29.77,29.68,29.61,10,10,10,28,19,36,0.00,0,,178